{"data":{"norad_id":47862,"intl_designator":"2021-021C","name":"STARLINK-2291","alt_names":[],"object_type":"PAYLOAD","status":"ACTIVE","operator":null,"country":"US","launch_date":"2021-03-14","launch_site_code":"AFETR","launch_vehicle":null,"mission":null,"orbit_class":"UNKNOWN","rcs_meters":null,"size_class":null,"mass_kg":null,"dimensions":null,"purposes":["comms"],"wikipedia_slug":null,"has_3d_model":false,"image_url":null,"decayed_at":null,"tle_current":{"epoch":"2026-09-12T22:49:45.064128Z","epoch_age_seconds":682160,"freshness":"AGED","line1":"1 47862U 21021C   26255.95121602  .08762779  12421-4  63051-3 0  9997","line2":"2 47862  53.1335  61.5635 0010315 294.0596  65.9372 16.39898369305709","mean_motion":16.39898369,"eccentricity":0.0010315,"inclination_deg":53.1335,"raan_deg":61.5635,"arg_perigee_deg":294.0596,"mean_anomaly_deg":65.9372,"bstar":0.00063051,"rev_number":30570,"period_min":87.810319664999,"perigee_km":159.32252019321,"apogee_km":172.82322516054,"semimajor_km":6544.2098726769,"source":"CELESTRAK","updated_at":"2026-09-13T09:00:27.891982Z"}}}